Pearland, TX

8:19 PM CST on January 20, 2017 (GMT -0600)
Houston Clover

Weather History for KLVJ - November, 2013

Change the Weather History Date:

Saturday, November 30, 2013

  Actual Average (KEFD) Record (KEFD)
Temperature  
Mean Temperature 56 °F -  
Max Temperature 70 °F 67 °F 82 °F (1998)
Min Temperature 42 °F 48 °F 35 °F (2001)
Degree Days  
Heating Degree Days 9    
Growing Degree Days 6 (Base 50)    
Moisture  
Dew Point 47 °F    
Average Humidity 75    
Maximum Humidity 94    
Minimum Humidity 49    
Precipitation  
Precipitation 0.00 in - - ()
Sea Level Pressure  
Sea Level Pressure 30.33 in    
Wind  
Wind Speed 3 mph (East)    
Max Wind Speed 8 mph    
Max Gust Speed -    
Visibility 8 miles    
Events      
Averages and records for this station are not official NWS values.
T = Trace of Precipitation, MM = Missing Value Source: NWS Daily Summary

Daily Weather History Graph

Daily Weather History Graph

Search for Another Location

Airport or City:

Trip Planner

Search our weather history database for the weather conditions in past years. The results will help you decide how hot, cold, wet, or windy it might be!

Date:

Astronomy

Nov. 30, 2013 Rise Set
Actual Time 6:57 AM CST 5:21 PM CST
Civil Twilight 6:31 AM CST 5:47 PM CST
Nautical Twilight 6:02 AM CST 6:16 PM CST
Astronomical Twilight 5:33 AM CST 6:45 PM CST
Moon 4:19 AM CST (11/30) 3:38 PM CST (11/30)
Length of Visible Light 11h 15m
Length of Day
10h 24m
Waning Crescent, 7% of the Moon is Illuminated
Nov 30
Waning Crescent
Dec 2
New
Dec 9
First Quarter
Dec 17
Full
Dec 25
Last Quarter

Hourly Weather History & Observations

Time (CST) Temp. Dew Point Humidity Pressure Visibility Wind Dir Wind Speed Gust Speed Precip Events Conditions
12:53 AM 42.1 °F 37.0 °F 82% 30.40 in 10.0 mi Calm Calm - N/A   Clear
1:53 AM 42.1 °F 37.0 °F 82% 30.38 in 9.0 mi Calm Calm - N/A   Clear
2:53 AM 42.1 °F 37.0 °F 82% 30.38 in 9.0 mi Calm Calm - N/A   Clear
3:53 AM 42.1 °F 37.9 °F 85% 30.38 in 9.0 mi Calm Calm - N/A   Clear
4:53 AM 44.1 °F 39.0 °F 82% 30.37 in 9.0 mi Calm Calm - N/A   Clear
5:53 AM 45.0 °F 39.9 °F 82% 30.37 in 8.0 mi Calm Calm - N/A   Clear
6:53 AM 45.0 °F 39.9 °F 82% 30.38 in 7.0 mi Calm Calm - N/A   Clear
7:53 AM 48.9 °F 45.0 °F 86% 30.39 in 8.0 mi NE 3.5 mph - N/A   Clear
8:53 AM 54.0 °F 46.9 °F 77% 30.41 in 10.0 mi NE 5.8 mph - N/A   Clear
9:53 AM 61.0 °F 48.9 °F 64% 30.41 in 10.0 mi East 6.9 mph - N/A   Clear
10:53 AM 64.0 °F 50.0 °F 60% 30.39 in 10.0 mi East 5.8 mph - N/A   Clear
11:53 AM 66.9 °F 51.1 °F 57% 30.37 in 10.0 mi ENE 5.8 mph - N/A   Clear
12:53 PM 69.1 °F 51.1 °F 53% 30.33 in 10.0 mi East 8.1 mph - N/A   Clear
1:53 PM 70.0 °F 50.0 °F 49% 30.30 in 10.0 mi ESE 6.9 mph - N/A   Clear
2:53 PM 69.1 °F 48.9 °F 49% 30.28 in 10.0 mi ESE 6.9 mph - N/A   Clear
3:53 PM 69.1 °F 48.9 °F 49% 30.27 in 10.0 mi ESE 6.9 mph - N/A   Scattered Clouds
4:53 PM 64.9 °F 51.1 °F 61% 30.27 in 10.0 mi ESE 4.6 mph - N/A   Clear
5:53 PM 61.0 °F 52.0 °F 72% 30.27 in 10.0 mi ESE 5.8 mph - N/A   Mostly Cloudy
6:53 PM 57.9 °F 52.0 °F 81% 30.27 in 10.0 mi ESE 5.8 mph - N/A   Mostly Cloudy
7:53 PM 57.0 °F 53.1 °F 87% 30.28 in 8.0 mi ESE 3.5 mph - N/A   Scattered Clouds
8:53 PM 57.0 °F 53.1 °F 87% 30.27 in 6.0 mi SE 3.5 mph - N/A   Clear
9:53 PM 55.9 °F 53.1 °F 90% 30.26 in 4.0 mi SE 5.8 mph - N/A   Clear
10:53 PM 55.9 °F 53.1 °F 90% 30.25 in 6.0 mi SE 5.8 mph - N/A   Clear
11:53 PM 54.0 °F 51.1 °F 90% 30.24 in 4.0 mi Calm Calm - N/A   Clear
11:59 PM 53.6 °F 51.8 °F 94% 30.24 in 1.5 mi Calm Calm - N/A   Clear